Location: Bijele Vode
(45.2833°N, 16.2000°E)
Time: 22:10:10
(UTC+00:00)

RS-44 - Visible Passes

Search period start: 05 December 2021 00:00
Search period end: 15 December 2021 00:00
Orbit: 1174 x 1511 km, 82.5° (Epoch: 04 December)

Date Brightness Start Highest point End Pass type
(mag) Time Alt. Az. Time Alt. Az. Time Alt. Az.
05 Dec ? 03:59:07 10° N 04:05:47 32° ENE 04:12:48 10° SE visible
05 Dec ? 16:42:56 10° SE 16:47:46 22° E 16:47:46 22° E visible
05 Dec ? 18:33:36 10° SSW 18:50:26 - N 18:40:29 69° W visible
05 Dec ? 20:32:33 10° W 20:43:00 - N 20:33:12 11° WNW visible
06 Dec ? 04:22:32 10° N 04:29:53 48° ENE 04:37:43 10° SSE visible
06 Dec ? 17:05:09 10° SSE 17:11:30 35° E 17:13:11 31° ENE visible
06 Dec ? 18:57:54 10° SW 19:04:44 45° WNW 19:05:55 42° NW visible
07 Dec ? 02:54:43 10° NNE 02:58:58 15° ENE 03:03:20 10° E visible
07 Dec ? 04:46:09 10° N 04:53:49 72° E 05:02:04 10° SSE visible
07 Dec ? 17:28:02 10° SSE 17:35:00 55° E 17:39:04 26° NNE visible
07 Dec ? 19:22:45 10° SW 19:28:51 29° WNW 19:31:52 22° NNW visible
08 Dec ? 03:17:25 10° NNE 03:23:24 24° ENE 03:29:40 10° ESE visible
08 Dec ? 05:09:55 10° NNW 05:17:37 78° W 05:25:55 10° S visible
08 Dec ? 16:02:45 10° ESE 16:06:26 15° ENE 16:10:09 10° NE visible
08 Dec ? 17:51:27 10° S 17:58:40 86° E 18:05:56 10° N visible
08 Dec ? 19:48:19 10° WSW 19:53:09 19° WNW 19:58:04 10° NNW visible
09 Dec ? 03:40:38 10° N 03:47:38 36° ENE 03:55:03 10° SE visible
09 Dec ? 05:33:52 10° NNW 05:41:18 52° W 05:49:15 10° SSW visible
09 Dec ? 16:24:08 10° SE 16:29:40 25° E 16:35:14 10° NNE visible
09 Dec ? 18:15:22 10° SSW 18:22:29 63° WNW 18:29:40 10° N visible
09 Dec ? 20:15:19 10° WNW 20:17:42 12° NW 20:20:06 10° NW visible
10 Dec ? 02:14:24 10° NE 02:16:18 11° NE 02:18:13 10° ENE visible
10 Dec ? 04:04:06 10° N 04:11:41 54° ENE 04:19:48 10° SSE visible
10 Dec ? 16:46:33 10° SSE 16:53:04 39° E 16:59:39 10° NNE visible
10 Dec ? 18:39:48 10° SW 18:46:28 40° WNW 18:53:14 10° N visible
11 Dec ? 02:35:55 10° NNE 02:40:55 18° ENE 02:46:03 10° E visible
11 Dec ? 04:27:46 10° N 04:35:36 80° E 04:44:01 10° SSE visible
11 Dec ? 17:09:34 10° S 17:16:36 62° E 17:23:45 10° NNE visible
11 Dec ? 19:04:48 10° WSW 19:10:37 26° WNW 19:16:34 10° N visible
12 Dec ? 02:58:51 10° N 03:05:18 27° ENE 03:12:04 10° ESE visible
12 Dec ? 04:51:35 10° NNW 04:59:23 71° W 05:07:44 10° S visible
12 Dec ? 15:43:38 10° ESE 15:47:57 17° ENE 15:52:18 10° NE visible
12 Dec ? 17:33:07 10° S 17:40:18 86° W 17:47:38 10° N visible
12 Dec ? 19:30:37 10° W 19:35:01 17° WNW 19:39:29 10° NNW visible
13 Dec ? 03:22:10 10° N 03:29:29 40° ENE 03:37:16 10° SE visible
13 Dec ? 05:15:35 10° NNW 05:23:01 47° W 05:30:57 10° SSW visible
13 Dec ? 16:05:23 10° SE 16:11:13 28° E 16:17:09 10° NNE visible
13 Dec ? 17:57:10 10° SSW 18:04:10 56° WNW 18:11:21 10° N visible
13 Dec ? 19:58:43 10° WNW 19:59:37 10° NW 20:00:32 10° NW visible
14 Dec ? 01:54:57 10° NNE 01:58:18 13° NE 02:01:43 10° E visible
14 Dec ? 03:45:42 10° N 03:53:31 60° ENE 04:01:52 10° SSE visible
14 Dec ? 05:39:50 10° NNW 05:46:31 31° W 05:53:36 10° SW visible
14 Dec ? 16:27:58 10° SSE 16:34:39 44° E 16:41:28 10° NNE visible
14 Dec ? 18:21:43 10° SW 18:28:12 36° WNW 18:34:52 10° N visible
